This is the latest recevied weather packets stored in our database for station/object W4OTS. If no packets are shown the sender has not sent any weather packets the latest 10 day(s).
| Time | Temp. | Humidity | Pressure | Rain* | Wind** | Luminosity | Snow |
|---|---|---|---|---|---|---|---|
| 1777927278 | 23.89° C | 39% | 1015.8 hPa | 0 mm | - | 41 W/m² | - |
| 1777926976 | 23.89° C | 38% | 1016 hPa | 0 mm | - | 42 W/m² | - |
| 1777926674 | 23.89° C | 40% | 1015.7 hPa | 0 mm | - | 43 W/m² | - |
| 1777926368 | 23.89° C | 39% | 1016 hPa | 0 mm | - | 43 W/m² | - |
| 1777926066 | 23.89° C | 38% | 1016 hPa | 0 mm | - | 45 W/m² | - |
| 1777925762 | 23.89° C | 39% | 1016.1 hPa | 0 mm | - | 41 W/m² | - |
| 1777925461 | 23.89° C | 39% | 1016.2 hPa | 0 mm | - | 41 W/m² | - |
| 1777925156 | 23.89° C | 42% | 1016.1 hPa | 0 mm | - | 41 W/m² | - |
| 1777924854 | 23.89° C | 40% | 1016.3 hPa | 0 mm | - | 44 W/m² | - |
| 1777924550 | 23.89° C | 41% | 1016.2 hPa | 0 mm | - | 43 W/m² | - |
| 1777924246 | 23.89° C | 43% | 1016.2 hPa | 0 mm | - | 43 W/m² | - |
| 1777923943 | 23.89° C | 43% | 1016.4 hPa | 0 mm | - | 76 W/m² | - |
| 1777923638 | 23.89° C | 43% | 1016.7 hPa | 0 mm | - | 46 W/m² | - |
| 1777923335 | 23.89° C | 42% | 1016.5 hPa | 0 mm | - | 49 W/m² | - |
| 1777923034 | 23.89° C | 43% | 1016.6 hPa | 0 mm | - | 47 W/m² | - |
| 1777922732 | 23.89° C | 41% | 1016.6 hPa | 0 mm | - | 48 W/m² | - |
| 1777922430 | 23.89° C | 43% | 1016.6 hPa | 0 mm | - | 50 W/m² | - |
| 1777922127 | 23.33° C | 42% | 1016.6 hPa | 0 mm | - | 49 W/m² | - |
| 1777921823 | 23.33° C | 43% | 1016.8 hPa | 0 mm | - | 65 W/m² | - |
| 1777921519 | 23.89° C | 40% | 1016.7 hPa | 0 mm | - | 55 W/m² | - |
| 1777921215 | 23.89° C | 41% | 1016.9 hPa | 0 mm | - | 81 W/m² | - |
| 1777920913 | 23.89° C | 43% | 1017 hPa | 0 mm | - | 100 W/m² | - |
| 1777920609 | 23.89° C | 42% | 1016.9 hPa | 0 mm | - | 105 W/m² | - |
| 1777920305 | 23.89° C | 42% | 1017.2 hPa | 0 mm | - | 540 W/m² | - |
| 1777920000 | 24.44° C | 40% | 1017.2 hPa | 0 mm | - | 588 W/m² | - |
* Rain latest hour (hover to see other rain measurements)
** Current wind speed in m/s (hover to see current wind gust speed)